Simultaneous Nadir Overpasses (SNOs) Predictions

Prediction of SNOs between FY3D and NOAA-19 Satellite Orbit:

Table of predicted SNOs for the next 14.0 days since TLE Epoch: 10/12/2024
Index Date (FY3D) Time (FY3D) Lat,Lon (FY3D) SZA (FY3D ) Date (NOAA-19) Time (NOAA-19) Lat,Lon (NOAA-19) SZA (NOAA-19 ) Distance(km) Time Diff (sec)
1 10/22/2024 04:57:24 75.67, 108.52 86.91 10/22/2024 04:56:15 75.68, 106.35 86.86 59.76 69
2 10/22/2024 05:48:16 -75.99, -85.24 92.80 10/22/2024 05:47:09 -75.98, -85.33 92.80 2.32 67
3 10/22/2024 06:39:02 76.03, 81.93 87.26 10/22/2024 06:38:05 76.01, 82.01 87.24 3.23 57
4 10/22/2024 07:29:47 -76.02,-110.74 92.74 10/22/2024 07:29:06 -76.00,-110.77 92.76 2.58 41
5 10/22/2024 08:20:32 76.02, 56.59 87.28 10/22/2024 08:20:02 76.02, 56.58 87.28 0.42 30
6 10/22/2024 09:11:17 -76.01,-136.08 92.72 10/22/2024 09:11:03 -76.01,-136.20 92.72 3.19 14
7 10/22/2024 10:02:03 76.05, 31.08 87.33 10/22/2024 10:01:59 76.03, 31.14 87.32 2.58 4
8 10/22/2024 10:52:48 -76.05,-161.59 92.66 10/22/2024 10:53:00 -76.03,-161.64 92.68 2.81 12
9 10/22/2024 11:43:33 76.04, 5.74 87.35 10/22/2024 11:43:56 76.05, 5.71 87.36 1.10 23
10 10/22/2024 12:34:18 -76.04, 173.07 92.65 10/22/2024 12:34:57 -76.04, 172.92 92.65 4.04 39
11 10/22/2024 13:25:04 76.08, -19.76 87.41 10/22/2024 13:25:53 76.06, -19.73 87.40 2.02 49
12 10/22/2024 14:15:49 -76.07, 147.57 92.59 10/22/2024 14:16:54 -76.05, 147.49 92.61 3.26 65
13 10/22/2024 15:06:35 76.12, -45.26 87.47 10/22/2024 15:07:49 76.12, -45.00 87.49 7.09 74



Historial Predications of SNOs between FY3D and NOAA-19
